Location: Cosy Dell
(34.2789°N, 117.4537°W)
Time: 11:46:29
(UTC+00:00)

Landsat 7 - Pass Details

Date: 14 July 2020
Orbit: 701 x 703 km, 98.1° (Epoch: 09 August)

Event Time Altitude Azimuth Distance (km) Brightness Sun altitude
Exits shadow 04:46:27 35° 127° (SE) 1,119 4.3 -18.3°
Maximum altitude 04:48:03 51° 74° (ENE) 880 4.1 -18.5°
Drops below altitude 10° 04:52:40 10° 359° (N) 2,174 7.0 -19.2°
Sets 04:54:58 0° 354° (N) 3,095 8.0 -19.5°
